| time (UTC) | temp F | wind direction | speed MPH | gust MPH | rain 1hr in | rain 24hr in | rain mn in | humidity % | barometer mb |
| 20260505204345 | 53 | 278 | 1.0 | 1.0 | 0.00 | 0.05 | 0.05 | 59 | 1010.5 |
| 20260505203842 | 53 | 0 | 0.0 | 3.0 | 0.00 | 0.05 | 0.05 | 63 | 1010.7 |
| 20260505203338 | 53 | 300 | 0.0 | 2.0 | 0.00 | 0.05 | 0.05 | 60 | 1010.5 |
| 20260505202835 | 53 | 345 | 1.0 | 2.0 | 0.00 | 0.05 | 0.05 | 60 | 1010.4 |
| 20260505202331 | 53 | 346 | 3.0 | 3.0 | 0.00 | 0.05 | 0.05 | 59 | 1010.4 |
| 20260505201828 | 53 | 303 | 0.0 | 2.0 | 0.00 | 0.05 | 0.05 | 60 | 1010.5 |
| 20260505201326 | 53 | 70 | 0.0 | 3.0 | 0.00 | 0.05 | 0.05 | 58 | 1010.9 |
| 20260505200824 | 53 | 270 | 0.0 | 2.0 | 0.00 | 0.05 | 0.05 | 61 | 1011.3 |
| 20260505200320 | 53 | 320 | 0.0 | 3.0 | 0.00 | 0.05 | 0.05 | 59 | 1011.0 |
| 20260505195816 | 53 | 283 | 0.0 | 1.0 | 0.00 | 0.05 | 0.05 | 66 | 1011.1 |
| 20260505195313 | 53 | 288 | 0.0 | 3.0 | 0.00 | 0.05 | 0.05 | 57 | 1010.9 |
| 20260505194810 | 52 | 303 | 3.0 | 5.0 | 0.00 | 0.05 | 0.05 | 55 | 1011.1 |
| 20260505194308 | 53 | 345 | 2.0 | 3.0 | 0.00 | 0.05 | 0.05 | 61 | 1011.2 |
| 20260505193803 | 53 | 345 | 0.0 | 3.0 | 0.00 | 0.05 | 0.05 | 59 | 1011.3 |
| 20260505193301 | 53 | 282 | 1.0 | 3.0 | 0.00 | 0.05 | 0.05 | 58 | 1011.4 |
| 20260505192759 | 53 | 90 | 0.0 | 1.0 | 0.00 | 0.05 | 0.05 | 59 | 1011.5 |
| 20260505192256 | 53 | 278 | 0.0 | 1.0 | 0.00 | 0.05 | 0.05 | 60 | 1011.3 |
| 20260505191754 | 53 | 90 | 0.0 | 0.0 | 0.00 | 0.05 | 0.05 | 59 | 1011.2 |
| 20260505191252 | 53 | 90 | 0.0 | 0.0 | 0.00 | 0.05 | 0.05 | 60 | 1011.2 |
| 20260505190748 | 53 | 200 | 0.0 | 0.0 | 0.00 | 0.05 | 0.05 | 63 | 1011.4 |
| 20260505190243 | 52 | 352 | 0.0 | 0.0 | 0.00 | 0.05 | 0.05 | 66 | 1011.5 |
| 20260505185740 | 52 | 352 | 0.0 | 0.0 | 0.02 | 0.05 | 0.05 | 67 | 1011.3 |
| 20260505185237 | 52 | 337 | 0.0 | 1.0 | 0.02 | 0.05 | 0.05 | 67 | 1011.3 |
| 20260505184732 | 52 | 340 | 1.0 | 1.0 | 0.00 | 0.05 | 0.05 | 67 | 1011.4 |
| 20260505184230 | 52 | 202 | 2.0 | 2.0 | 0.00 | 0.05 | 0.05 | 57 | 1011.4 |
| 20260505183727 | 52 | 297 | 0.0 | 4.0 | 0.00 | 0.05 | 0.05 | 56 | 1011.2 |
| 20260505183224 | 52 | 290 | 2.0 | 5.0 | 0.00 | 0.05 | 0.05 | 53 | 1011.3 |
| 20260505182720 | 52 | 71 | 0.0 | 4.0 | 0.00 | 0.05 | 0.05 | 55 | 1011.3 |
| 20260505182218 | 52 | 237 | 0.0 | 5.0 | 0.00 | 0.05 | 0.05 | 54 | 1011.3 |
| 20260505181714 | 52 | 270 | 0.0 | 5.0 | 0.00 | 0.05 | 0.05 | 54 | 1011.2 |
| 20260505181212 | 52 | 180 | 2.0 | 4.0 | 0.00 | 0.05 | 0.05 | 56 | 1011.5 |
| 20260505180708 | 53 | 300 | 0.0 | 3.0 | 0.00 | 0.05 | 0.05 | 61 | 1011.4 |
| 20260505180204 | 53 | 330 | 6.0 | 9.0 | 0.00 | 0.05 | 0.05 | 51 | 1011.2 |
| 20260505175700 | 53 | 261 | 0.0 | 4.0 | 0.00 | 0.05 | 0.05 | 52 | 1011.4 |
| 20260505175157 | 53 | 251 | 0.0 | 5.0 | 0.00 | 0.05 | 0.05 | 56 | 1011.5 |
| 20260505174654 | 53 | 297 | 3.0 | 4.0 | 0.00 | 0.05 | 0.05 | 60 | 1011.3 |
| 20260505174150 | 53 | 205 | 4.0 | 10.0 | 0.00 | 0.05 | 0.05 | 55 | 1011.6 |
| 20260505173647 | 54 | 270 | 2.0 | 5.0 | 0.00 | 0.05 | 0.05 | 62 | 1011.3 |
| 20260505173144 | 54 | 239 | 2.0 | 2.0 | 0.00 | 0.05 | 0.05 | 62 | 1011.3 |
| 20260505172641 | 54 | 261 | 0.0 | 3.0 | 0.00 | 0.05 | 0.05 | 61 | 1010.9 |
| 20260505172138 | 54 | 294 | 1.0 | 3.0 | 0.00 | 0.05 | 0.05 | 64 | 1011.0 |
| 20260505171637 | 54 | 246 | 0.0 | 4.0 | 0.00 | 0.05 | 0.05 | 64 | 1011.1 |
| 20260505171135 | 54 | 248 | 0.0 | 3.0 | 0.00 | 0.05 | 0.05 | 62 | 1011.0 |
| 20260505170632 | 54 | 286 | 0.0 | 2.0 | 0.00 | 0.05 | 0.05 | 63 | 1011.3 |
| 20260505170128 | 54 | 243 | 2.0 | 3.0 | 0.00 | 0.05 | 0.05 | 60 | 1011.3 |
| 20260505165623 | 54 | 303 | 3.0 | 4.0 | 0.00 | 0.05 | 0.05 | 63 | 1010.9 |
| 20260505165120 | 55 | 334 | 4.0 | 4.0 | 0.00 | 0.05 | 0.05 | 64 | 1010.9 |
| 20260505164615 | 55 | 0 | 0.0 | 5.0 | 0.00 | 0.05 | 0.05 | 61 | 1010.9 |
| 20260505164113 | 54 | 200 | 1.0 | 3.0 | 0.00 | 0.05 | 0.05 | 61 | 1010.5 |
| 20260505163611 | 55 | 258 | 0.0 | 5.0 | 0.00 | 0.05 | 0.05 | 64 | 1010.7 |
| 20260505163109 | 53 | 286 | 1.0 | 5.0 | 0.00 | 0.05 | 0.05 | 62 | 1010.8 |
| 20260505162606 | 53 | 16 | 3.0 | 3.0 | 0.00 | 0.05 | 0.05 | 66 | 1010.5 |
| 20260505162104 | 52 | 278 | 1.0 | 3.0 | 0.00 | 0.05 | 0.05 | 66 | 1010.7 |
| 20260505161600 | 53 | 319 | 2.0 | 3.0 | 0.00 | 0.05 | 0.05 | 70 | 1010.9 |
| 20260505161058 | 52 | 0 | 0.0 | 3.0 | 0.00 | 0.05 | 0.05 | 68 | 1010.7 |
| 20260505160555 | 52 | 283 | 0.0 | 6.0 | 0.00 | 0.05 | 0.05 | 70 | 1010.7 |
| 20260505153032 | 50 | 188 | 2.0 | 3.0 | 0.00 | 0.05 | 0.05 | 71 | 1009.8 |
| 20260505152529 | 50 | 349 | 2.0 | 4.0 | 0.00 | 0.05 | 0.05 | 73 | 1010.0 |
| 20260505152025 | 50 | 239 | 2.0 | 4.0 | 0.00 | 0.05 | 0.05 | 75 | 1010.1 |
| 20260505151520 | 50 | 342 | 0.0 | 5.0 | 0.00 | 0.05 | 0.05 | 74 | 1010.1 |
| 20260505151017 | 51 | 336 | 2.0 | 4.0 | 0.00 | 0.05 | 0.05 | 72 | 1009.9 |
| 20260505150514 | 51 | 270 | 1.0 | 7.0 | 0.00 | 0.05 | 0.05 | 75 | 1009.8 |
| 20260505140439 | 47 | 323 | 0.0 | 2.0 | 0.00 | 0.05 | 0.05 | 84 | 1009.1 |
| 20260505124852 | 46 | 312 | 0.0 | 3.0 | 0.02 | 0.03 | 0.03 | 80 | 1009.8 |
| 20260505124349 | 46 | 342 | 2.0 | 7.0 | 0.05 | 0.03 | 0.03 | 79 | 1010.2 |
| 20260505123845 | 46 | 236 | 0.0 | 6.0 | 0.07 | 0.02 | 0.02 | 79 | 1010.2 |
| 20260505123342 | 46 | 264 | 2.0 | 7.0 | 0.05 | 0.02 | 0.02 | 77 | 1010.3 |
| 20260505122838 | 47 | 245 | 2.0 | 4.0 | 0.02 | 0.01 | 0.01 | 75 | 1010.7 |
| 20260505122336 | 47 | 288 | 3.0 | 8.0 | 0.02 | 0.01 | 0.01 | 73 | 1010.4 |
| 20260505121832 | 47 | 228 | 0.0 | 5.0 | 0.02 | 0.01 | 0.01 | 73 | 1010.5 |
| 20260505121329 | 47 | 251 | 4.0 | 9.0 | 0.02 | 0.01 | 0.01 | 72 | 1010.4 |
| 20260505120825 | 48 | 213 | 2.0 | 8.0 | 0.02 | 0.00 | 0.00 | 74 | 1010.4 |
| 20260505120321 | 48 | 236 | 5.0 | 7.0 | 0.02 | 0.00 | 0.00 | 73 | 1010.5 |
| 20260505115820 | 48 | 257 | 5.0 | 15.0 | 0.00 | 0.00 | 0.00 | 70 | 1010.8 |
| 20260505115317 | 49 | 265 | 4.0 | 10.0 | 0.00 | 0.00 | 0.00 | 66 | 1010.7 |
| 20260505114815 | 50 | 117 | 0.0 | 6.0 | 0.00 | 0.00 | 0.00 | 62 | 1010.4 |
| 20260505114311 | 51 | 63 | 0.0 | 8.0 | 0.00 | 0.00 | 0.00 | 60 | 1010.3 |
| 20260505113808 | 51 | 278 | 2.0 | 9.0 | 0.00 | 0.00 | 0.00 | 58 | 1009.7 |
| 20260505113304 | 51 | 219 | 4.0 | 9.0 | 0.00 | 0.00 | 0.00 | 56 | 1009.1 |
| 20260505112800 | 51 | 298 | 4.0 | 9.0 | 0.00 | 0.00 | 0.00 | 56 | 1008.7 |
| 20260505112258 | 51 | 45 | 2.0 | 8.0 | 0.00 | 0.00 | 0.00 | 56 | 1008.5 |
| 20260505111758 | 51 | 270 | 2.0 | 7.0 | 0.00 | 0.00 | 0.00 | 61 | 1008.4 |
| 20260505111254 | 51 | 282 | 3.0 | 6.0 | 0.00 | 0.00 | 0.00 | 60 | 1008.7 |
| 20260505110750 | 51 | 328 | 1.0 | 7.0 | 0.00 | 0.00 | 0.00 | 57 | 1008.2 |
| 20260505110248 | 52 | 247 | 3.0 | 5.0 | 0.00 | 0.00 | 0.00 | 57 | 1008.2 |
| 20260505101722 | 53 | 270 | 3.0 | 9.0 | 0.00 | 0.00 | 0.00 | 56 | 1008.4 |
| 20260505101218 | 53 | 249 | 3.0 | 8.0 | 0.00 | 0.00 | 0.00 | 55 | 1008.0 |
| 20260505100715 | 53 | 284 | 3.0 | 5.0 | 0.00 | 0.00 | 0.00 | 54 | 1008.0 |
| 20260505100212 | 54 | 294 | 2.0 | 6.0 | 0.00 | 0.00 | 0.00 | 54 | 1008.2 |
| 20260505095707 | 54 | 278 | 5.0 | 8.0 | 0.00 | 0.00 | 0.00 | 52 | 1008.2 |
| 20260505095205 | 54 | 239 | 8.0 | 13.0 | 0.00 | 0.00 | 0.00 | 53 | 1007.9 |
| 20260505094700 | 54 | 233 | 2.0 | 4.0 | 0.00 | 0.00 | 0.00 | 55 | 1008.1 |
| 20260505094157 | 54 | 262 | 0.0 | 5.0 | 0.00 | 0.00 | 0.00 | 54 | 1007.8 |
| 20260505093653 | 54 | 85 | 2.0 | 6.0 | 0.00 | 0.00 | 0.00 | 53 | 1007.5 |
| 20260505093151 | 54 | 0 | 1.0 | 6.0 | 0.00 | 0.00 | 0.00 | 55 | 1007.5 |
| 20260505092647 | 54 | 266 | 0.0 | 3.0 | 0.00 | 0.00 | 0.00 | 56 | 1007.5 |
| 20260505092147 | 54 | 355 | 0.0 | 3.0 | 0.00 | 0.00 | 0.00 | 55 | 1007.6 |
| 20260505091643 | 54 | 285 | 1.0 | 5.0 | 0.00 | 0.00 | 0.00 | 56 | 1007.6 |
| 20260505091141 | 54 | 308 | 0.0 | 7.0 | 0.00 | 0.00 | 0.00 | 57 | 1007.8 |
| 20260505090638 | 54 | 114 | 1.0 | 4.0 | 0.00 | 0.00 | 0.00 | 55 | 1007.3 |
| 20260505090137 | 54 | 246 | 2.0 | 2.0 | 0.00 | 0.00 | 0.00 | 56 | 1007.6 |
| 20260505085633 | 55 | 81 | 0.0 | 4.0 | 0.00 | 0.00 | 0.00 | 54 | 1007.7 |
| 20260505085132 | 55 | 10 | 0.0 | 2.0 | 0.00 | 0.00 | 0.00 | 56 | 1007.8 |
| 20260505084629 | 55 | 262 | 0.0 | 4.0 | 0.00 | 0.00 | 0.00 | 53 | 1007.7 |
| 20260505084128 | 55 | 248 | 0.0 | 3.0 | 0.00 | 0.00 | 0.00 | 54 | 1007.6 |
| 20260505083625 | 55 | 311 | 2.0 | 5.0 | 0.00 | 0.00 | 0.00 | 55 | 1007.4 |
| 20260505083121 | 55 | 135 | 0.0 | 5.0 | 0.00 | 0.00 | 0.00 | 52 | 1007.2 |
| 20260505082617 | 56 | 234 | 0.0 | 6.0 | 0.00 | 0.00 | 0.00 | 52 | 1007.1 |
| 20260505082114 | 55 | 222 | 3.0 | 6.0 | 0.00 | 0.00 | 0.00 | 54 | 1006.8 |
| 20260505081610 | 56 | 203 | 0.0 | 6.0 | 0.00 | 0.00 | 0.00 | 54 | 1006.7 |
| 20260505081108 | 56 | 225 | 3.0 | 7.0 | 0.00 | 0.00 | 0.00 | 54 | 1007.0 |
| 20260505080603 | 55 | 290 | 4.0 | 5.0 | 0.00 | 0.00 | 0.00 | 56 | 1006.9 |
| 20260505080100 | 55 | 320 | 0.0 | 3.0 | 0.00 | 0.00 | 0.00 | 57 | 1006.8 |
| 20260505075556 | 56 | 257 | 4.0 | 4.0 | 0.00 | 0.00 | 0.00 | 55 | 1006.6 |
| 20260505075053 | 55 | 270 | 1.0 | 2.0 | 0.00 | 0.00 | 0.00 | 59 | 1006.5 |
| 20260505074550 | 56 | 276 | 0.0 | 3.0 | 0.00 | 0.00 | 0.00 | 58 | 1006.3 |
| 20260505074047 | 56 | 287 | 0.0 | 2.0 | 0.00 | 0.00 | 0.00 | 59 | 1005.9 |
| 20260505073544 | 56 | 225 | 2.0 | 2.0 | 0.00 | 0.00 | 0.00 | 57 | 1006.0 |
| 20260505073043 | 56 | 253 | 0.0 | 2.0 | 0.00 | 0.00 | 0.00 | 54 | 1005.8 |
| 20260505072538 | 57 | 280 | 2.0 | 3.0 | 0.00 | 0.00 | 0.00 | 54 | 1005.6 |
| 20260505072035 | 57 | 188 | 0.0 | 4.0 | 0.00 | 0.00 | 0.00 | 51 | 1005.5 |
| 20260505071530 | 57 | 222 | 3.0 | 4.0 | 0.00 | 0.00 | 0.00 | 54 | 1005.4 |
| 20260505071029 | 56 | 165 | 1.0 | 3.0 | 0.00 | 0.00 | 0.00 | 57 | 1005.4 |
| 20260505070526 | 57 | 128 | 2.0 | 5.0 | 0.00 | 0.00 | 0.00 | 60 | 1005.5 |
| 20260505070022 | 57 | 206 | 1.0 | 5.0 | 0.00 | 0.00 | 0.00 | 61 | 1005.4 |
| 20260505065518 | 57 | 165 | 1.0 | 3.0 | 0.00 | 0.00 | 0.00 | 64 | 1005.4 |
| 20260505065015 | 57 | 203 | 2.0 | 4.0 | 0.00 | 0.00 | 0.00 | 64 | 1005.3 |
| 20260505064512 | 57 | 211 | 3.0 | 6.0 | 0.00 | 0.00 | 0.00 | 68 | 1005.2 |
| 20260505064010 | 57 | 254 | 1.0 | 3.0 | 0.00 | 0.00 | 0.00 | 66 | 1005.2 |
| 20260505063507 | 56 | 225 | 3.0 | 4.0 | 0.00 | 0.00 | 0.00 | 73 | 1005.1 |
| 20260505063002 | 56 | 169 | 1.0 | 3.0 | 0.00 | 0.00 | 0.00 | 72 | 1005.0 |
| 20260505062459 | 56 | 203 | 0.0 | 2.0 | 0.00 | 0.00 | 0.00 | 71 | 1005.0 |
| 20260505061956 | 56 | 229 | 0.0 | 2.0 | 0.00 | 0.00 | 0.00 | 73 | 1004.7 |
| 20260505061454 | 56 | 253 | 0.0 | 2.0 | 0.00 | 0.00 | 0.00 | 71 | 1004.7 |
| 20260505060951 | 57 | 180 | 0.0 | 3.0 | 0.00 | 0.00 | 0.00 | 69 | 1004.7 |
| 20260505060449 | 57 | 126 | 1.0 | 3.0 | 0.00 | 0.00 | 0.00 | 71 | 1004.3 |
| 20260505055945 | 57 | 203 | 1.0 | 4.0 | 0.00 | 0.00 | 0.00 | 71 | 1004.4 |
| 20260505055441 | 57 | 111 | 0.0 | 2.0 | 0.00 | 0.00 | 0.00 | 71 | 1004.2 |
| 20260505054938 | 58 | 114 | 1.0 | 2.0 | 0.00 | 0.00 | 0.00 | 74 | 1004.1 |
| 20260505054435 | 58 | 180 | 1.0 | 2.0 | 0.00 | 0.00 | 0.00 | 73 | 1004.0 |
| 20260505053933 | 58 | 143 | 2.0 | 3.0 | 0.00 | 0.00 | 0.00 | 73 | 1003.9 |
| 20260505053430 | 58 | 249 | 1.0 | 4.0 | 0.00 | 0.00 | 0.00 | 75 | 1003.6 |
| 20260505052927 | 58 | 221 | 2.0 | 2.0 | 0.00 | 0.00 | 0.00 | 77 | 1003.5 |
| 20260505052423 | 58 | 171 | 0.0 | 2.0 | 0.00 | 0.00 | 0.00 | 80 | 1004.0 |
| 20260505051921 | 58 | 188 | 0.0 | 2.0 | 0.00 | 0.00 | 0.00 | 80 | 1003.9 |
| 20260505051418 | 59 | 353 | 0.0 | 3.0 | 0.00 | 0.00 | 0.00 | 78 | 1003.6 |
| 20260505050916 | 59 | 212 | 0.0 | 2.0 | 0.00 | 0.00 | 0.00 | 77 | 1003.8 |
| 20260505050414 | 59 | 29 | 0.0 | 2.0 | 0.00 | 0.00 | 0.00 | 77 | 1003.3 |
| 20260505041341 | 60 | 353 | 0.0 | 2.0 | 0.00 | 0.06 | 0.06 | 86 | 1002.7 |
| 20260505040838 | 59 | 345 | 1.0 | 4.0 | 0.00 | 0.06 | 0.06 | 86 | 1002.9 |
| 20260505040336 | 59 | 11 | 1.0 | 2.0 | 0.00 | 0.06 | 0.06 | 90 | 1002.8 |
| 20260505035833 | 59 | 166 | 0.0 | 2.0 | 0.00 | 0.06 | 0.06 | 90 | 1002.7 |
| 20260505035328 | 59 | 289 | 1.0 | 3.0 | 0.00 | 0.06 | 0.06 | 89 | 1002.4 |
| 20260505034826 | 59 | 165 | 0.0 | 1.0 | 0.00 | 0.06 | 0.06 | 88 | 1001.7 |
| 20260505034322 | 60 | 0 | 0.0 | 3.0 | 0.00 | 0.06 | 0.06 | 87 | 1001.6 |
| 20260505033820 | 60 | 110 | 0.0 | 2.0 | 0.00 | 0.06 | 0.06 | 85 | 1001.3 |
| 20260505033316 | 60 | 0 | 1.0 | 3.0 | 0.00 | 0.06 | 0.06 | 81 | 1001.1 |
| 20260505032815 | 61 | 55 | 2.0 | 2.0 | 0.05 | 0.06 | 0.06 | 81 | 1001.5 |
| 20260505032310 | 61 | 165 | 0.0 | 3.0 | 0.14 | 0.06 | 0.06 | 80 | 1001.5 |
| 20260505031808 | 60 | 257 | 0.0 | 7.0 | 0.17 | 0.05 | 0.05 | 81 | 1001.8 |
| 20260505031304 | 60 | 300 | 0.0 | 3.0 | 0.02 | 0.02 | 0.02 | 81 | 1001.5 |
| 20260505030802 | 61 | 96 | 0.0 | 5.0 | 0.02 | 0.02 | 0.02 | 80 | 1002.1 |
| 20260505030258 | 61 | 66 | 1.0 | 4.0 | 0.07 | 0.02 | 0.02 | 78 | 1002.5 |
| 20260505025753 | 61 | 8 | 0.0 | 2.0 | 0.07 | 0.02 | 0.02 | 77 | 1002.3 |
| 20260505025251 | 62 | 8 | 0.0 | 5.0 | 0.05 | 0.01 | 0.01 | 75 | 1002.2 |
| 20260505024749 | 63 | 332 | 4.0 | 6.0 | 0.02 | 0.00 | 0.00 | 70 | 1002.4 |
| 20260505024246 | 64 | 14 | 0.0 | 7.0 | 0.00 | 0.00 | 0.00 | 65 | 1002.8 |
| 20260505023743 | 65 | 259 | 3.0 | 7.0 | 0.00 | 0.00 | 0.00 | 61 | 1002.6 |
| 20260505023240 | 66 | 304 | 2.0 | 5.0 | 0.00 | 0.00 | 0.00 | 58 | 1002.5 |
| 20260505022738 | 66 | 270 | 0.0 | 3.0 | 0.00 | 0.00 | 0.00 | 56 | 1002.6 |
| 20260505022235 | 67 | 209 | 1.0 | 5.0 | 0.00 | 0.00 | 0.00 | 53 | 1002.4 |
| 20260505021731 | 68 | 275 | 6.0 | 11.0 | 0.00 | 0.00 | 0.00 | 51 | 1002.4 |
| 20260505021228 | 68 | 315 | 3.0 | 7.0 | 0.00 | 0.00 | 0.00 | 49 | 1002.0 |
| 20260505020724 | 69 | 270 | 2.0 | 10.0 | 0.00 | 0.00 | 0.00 | 50 | 1002.3 |
| 20260505020219 | 69 | 68 | 3.0 | 8.0 | 0.00 | 0.00 | 0.00 | 48 | 1002.0 |
| 20260505015717 | 70 | 349 | 9.0 | 13.0 | 0.00 | 0.00 | 0.00 | 49 | 1001.8 |
| 20260505015214 | 70 | 326 | 4.0 | 8.0 | 0.00 | 0.00 | 0.00 | 52 | 1001.8 |
| 20260505014711 | 70 | 248 | 3.0 | 6.0 | 0.00 | 0.00 | 0.00 | 61 | 1001.8 |
| 20260505014208 | 70 | 286 | 0.0 | 1.0 | 0.00 | 0.00 | 0.00 | 65 | 1001.2 |
| 20260505013705 | 70 | 270 | 0.0 | 2.0 | 0.00 | 0.00 | 0.00 | 64 | 1000.9 |
| 20260505013202 | 70 | 270 | 0.0 | 2.0 | 0.00 | 0.00 | 0.00 | 65 | 1000.8 |
| 20260505012700 | 70 | 165 | 0.0 | 0.0 | 0.00 | 0.00 | 0.00 | 64 | 1001.0 |
| 20260505012157 | 70 | 157 | 2.0 | 3.0 | 0.00 | 0.00 | 0.00 | 64 | 1000.7 |
| 20260505011653 | 71 | 320 | 2.0 | 3.0 | 0.00 | 0.00 | 0.00 | 63 | 1000.7 |
| 20260505011150 | 71 | 155 | 3.0 | 3.0 | 0.00 | 0.00 | 0.00 | 62 | 1000.3 |
| 20260505010645 | 71 | 306 | 0.0 | 3.0 | 0.00 | 0.00 | 0.00 | 62 | 1000.2 |
| 20260505010142 | 71 | 180 | 0.0 | 3.0 | 0.00 | 0.00 | 0.00 | 61 | 1000.4 |
| 20260505005638 | 72 | 276 | 2.0 | 4.0 | 0.00 | 0.00 | 0.00 | 61 | 1000.2 |
| 20260505005136 | 72 | 149 | 3.0 | 7.0 | 0.00 | 0.00 | 0.00 | 59 | 1000.0 |
| 20260505004632 | 72 | 246 | 0.0 | 3.0 | 0.00 | 0.00 | 0.00 | 58 | 1000.2 |
| 20260505004129 | 73 | 95 | 0.0 | 2.0 | 0.00 | 0.00 | 0.00 | 59 | 1000.0 |
| 20260505003626 | 73 | 163 | 4.0 | 4.0 | 0.00 | 0.00 | 0.00 | 58 | 1000.0 |
| 20260505003124 | 73 | 283 | 1.0 | 5.0 | 0.00 | 0.00 | 0.00 | 59 | 999.7 |
| 20260505002620 | 73 | 175 | 0.0 | 5.0 | 0.00 | 0.00 | 0.00 | 57 | 999.6 |
| 20260505002118 | 74 | 202 | 0.0 | 3.0 | 0.00 | 0.00 | 0.00 | 57 | 999.6 |
| 20260505001615 | 74 | 215 | 1.0 | 3.0 | 0.00 | 0.00 | 0.00 | 57 | 999.7 |
| 20260505001113 | 75 | 246 | 2.0 | 4.0 | 0.00 | 0.00 | 0.00 | 55 | 999.5 |
| 20260505000609 | 75 | 14 | 3.0 | 3.0 | 0.00 | 0.00 | 0.00 | 54 | 999.9 |
| 20260505000107 | 74 | 222 | 3.0 | 5.0 | 0.00 | 0.00 | 0.00 | 55 | 1000.1 |
| 20260504235603 | 75 | 157 | 2.0 | 6.0 | 0.00 | 0.00 | 0.00 | 55 | 1000.2 |
| 20260504235100 | 74 | 265 | 0.0 | 7.0 | 0.00 | 0.00 | 0.00 | 55 | 1000.3 |
| 20260504234557 | 74 | 177 | 0.0 | 4.0 | 0.00 | 0.00 | 0.00 | 55 | 1000.1 |
| 20260504234054 | 76 | 206 | 2.0 | 7.0 | 0.00 | 0.00 | 0.00 | 52 | 1000.0 |
| 20260504233549 | 77 | 99 | 0.0 | 7.0 | 0.00 | 0.00 | 0.00 | 50 | 1000.3 |
| 20260504233046 | 78 | 249 | 1.0 | 3.0 | 0.00 | 0.00 | 0.00 | 51 | 1000.3 |
| 20260504232544 | 79 | 209 | 3.0 | 7.0 | 0.00 | 0.00 | 0.00 | 47 | 1000.0 |
| 20260504232041 | 79 | 258 | 2.0 | 6.0 | 0.00 | 0.00 | 0.00 | 49 | 1000.0 |
| 20260504231538 | 79 | 246 | 1.0 | 6.0 | 0.00 | 0.00 | 0.00 | 47 | 999.9 |
| 20260504231034 | 79 | 153 | 5.0 | 7.0 | 0.00 | 0.00 | 0.00 | 48 | 1000.2 |
| 20260504230530 | 79 | 155 | 0.0 | 10.0 | 0.00 | 0.00 | 0.00 | 48 | 1000.1 |
| 20260504230029 | 79 | 24 | 0.0 | 7.0 | 0.00 | 0.00 | 0.00 | 47 | 1000.1 |
| 20260504225526 | 80 | 221 | 0.0 | 5.0 | 0.00 | 0.00 | 0.00 | 47 | 1000.2 |
| 20260504225023 | 80 | 157 | 9.0 | 9.0 | 0.00 | 0.00 | 0.00 | 47 | 1000.6 |
| 20260504224520 | 80 | 228 | 0.0 | 6.0 | 0.00 | 0.00 | 0.00 | 49 | 1000.4 |
| 20260504224017 | 80 | 275 | 2.0 | 6.0 | 0.00 | 0.00 | 0.00 | 47 | 1000.7 |
| 20260504223513 | 80 | 221 | 2.0 | 8.0 | 0.00 | 0.00 | 0.00 | 47 | 1000.7 |
| 20260504223009 | 81 | 225 | 2.0 | 3.0 | 0.00 | 0.00 | 0.00 | 46 | 1000.5 |
| 20260504222506 | 80 | 155 | 3.0 | 8.0 | 0.00 | 0.00 | 0.00 | 46 | 1000.6 |
| 20260504222004 | 80 | 180 | 0.0 | 5.0 | 0.00 | 0.00 | 0.00 | 45 | 1000.6 |
| 20260504221501 | 80 | 239 | 3.0 | 5.0 | 0.00 | 0.00 | 0.00 | 44 | 1000.8 |
| 20260504220958 | 80 | 160 | 4.0 | 5.0 | 0.00 | 0.00 | 0.00 | 44 | 1000.8 |
| 20260504220454 | 80 | 270 | 2.0 | 4.0 | 0.00 | 0.00 | 0.00 | 46 | 1001.0 |
| 20260504215951 | 80 | 283 | 2.0 | 6.0 | 0.00 | 0.00 | 0.00 | 45 | 1000.7 |
| 20260504215447 | 80 | 225 | 4.0 | 5.0 | 0.00 | 0.00 | 0.00 | 44 | 1000.5 |
| 20260504214944 | 80 | 216 | 3.0 | 8.0 | 0.00 | 0.00 | 0.00 | 44 | 1000.9 |
| 20260504214441 | 80 | 168 | 0.0 | 3.0 | 0.00 | 0.00 | 0.00 | 45 | 1000.8 |
| 20260504213937 | 80 | 262 | 2.0 | 7.0 | 0.00 | 0.00 | 0.00 | 48 | 1001.0 |
| 20260504213433 | 80 | 238 | 3.0 | 5.0 | 0.00 | 0.00 | 0.00 | 43 | 1001.0 |
| 20260504212931 | 80 | 254 | 0.0 | 5.0 | 0.00 | 0.00 | 0.00 | 50 | 1001.3 |
| 20260504212426 | 80 | 216 | 2.0 | 4.0 | 0.00 | 0.00 | 0.00 | 45 | 1001.3 |
| 20260504211925 | 80 | 253 | 3.0 | 6.0 | 0.00 | 0.00 | 0.00 | 47 | 1001.4 |
| 20260504211420 | 81 | 237 | 2.0 | 8.0 | 0.00 | 0.00 | 0.00 | 45 | 1001.4 |
| 20260504210918 | 80 | 216 | 0.0 | 5.0 | 0.00 | 0.00 | 0.00 | 44 | 1001.3 |
| 20260504210415 | 80 | 261 | 5.0 | 8.0 | 0.00 | 0.00 | 0.00 | 46 | 1001.2 |
| 20260504205912 | 80 | 300 | 2.0 | 4.0 | 0.00 | 0.00 | 0.00 | 46 | 1001.6 |
| 20260504205410 | 80 | 234 | 3.0 | 8.0 | 0.00 | 0.00 | 0.00 | 44 | 1001.6 |
| 20260504204908 | 80 | 240 | 3.0 | 7.0 | 0.00 | 0.00 | 0.00 | 44 | 1001.5 |